Tracking 17996 objects as of 1-March-2017
HD Live streaming from Space Station
objects crossing your sky now

ARIANE 44LP DEB

Track ARIANE 44LP DEB now!
10-day predictions


NORAD ID: 27662
Int'l Code: 1991-015N
Perigee: 430.3 km
Apogee: 24,049.1 km
Inclination: 5.8 °
Period: 421.1 minutes
Semi major axis: 18610 km
RCS: 0.2322 m2 (medium)
Launch date: March 2, 1991
Source: France (FR)
Launch site: FRENCH GUIANA (FRGUI)

Note: This is SATELLITE DEBRIS
Your satellite tracking list
Your tracking list is empty





NASA's NSSDC Master Catalog

Two Line Element Set (TLE):
1 27662U 91015N   17060.44257892  .00001418  00000-0  23480-2 0  9997
2 27662   5.8120 236.4335 6345473 242.2117  40.7032  3.41946540208842
Source of the keplerian elements: AFSPC